Location: Newark
(34.1333°N, 7.9667°W)
Time: 14:03:16
(UTC+00:00)

X-37B - Visible Passes

Search period start: 23 September 2021 00:00
Search period end: 03 October 2021 00:00
Orbit: 381 x 393 km, 45.0° (Epoch: 29 August)

Date Brightness Start Highest point End Pass type
(mag) Time Alt. Az. Time Alt. Az. Time Alt. Az.
23 Sep 4.0 03:59:30 13° ENE 03:59:30 13° ENE 03:59:56 10° ENE visible
23 Sep 2.5 05:31:48 13° WNW 05:33:40 20° NNW 05:36:05 10° NNE visible
24 Sep 2.5 04:36:10 23° NNE 04:36:10 23° NNE 04:37:56 10° NE visible
25 Sep 2.9 05:12:46 13° NW 05:13:46 15° NNW 05:15:39 10° NNE visible
26 Sep 3.6 04:17:04 12° NNE 04:17:04 12° NNE 04:17:32 10° NNE visible
26 Sep 3.2 05:51:29 10° NNW 05:52:39 11° N 05:53:48 10° NNE visible
27 Sep 3.2 04:53:37 12° NNW 04:53:56 12° N 04:55:18 10° NNE visible
28 Sep 3.3 05:31:28 10° NNW 05:32:50 12° N 05:34:11 10° NNE visible
29 Sep 3.5 04:34:29 11° N 04:34:29 11° N 04:35:15 10° NNE visible
30 Sep 3.2 05:11:08 10° NNW 05:12:59 14° NNE 05:14:50 10° NE visible
01 Oct 3.9 04:15:30 10° NNE 04:15:30 10° NNE 04:15:40 10° NNE visible
01 Oct 2.3 05:48:51 10° NW 05:51:39 28° NNE 05:54:28 10° E visible
02 Oct 2.8 04:52:16 17° N 04:53:06 19° NNE 04:55:28 10° ENE visible
